COSMOS 249 DEB, 3874

Orbit data source: Space-Track

COSMOS 249 DEB, 3874 is space debris in LEO originally from a launch on Sun, 20 Oct 1968 UTC launched from the Tyuratam Missile And Space Complex (TTMTR). Debris objects in space refer to the collection of defunct objects orbiting the Earth. Examples of debris include non-operational satellites, rocket bodies, and fragments generated from explosions, collisions, or faulty payload assembly.

Loading next visibility...
Identifier
3874, 1968-091BH
Orbit
LEO
Country
Flag of CISCIS
Related business
Manufacturer
Unknown
Mission
Spacecraft
Bus & Motor
Unknown
Mass
Unknown
Launch date (UTC)
1968-10-20 (58 years ago)
Launch vehicle
Unknown
Launch site
Tyuratam Missile And Space Complex (TTMTR)
Object type
Payload
Rocket body
Debris
Shape & HBR
Unknown shape, 0.1 m
Radar Cross Section
Medium (>0.1 m² and <1 m²)

Expand to show TLE details & history
Last TLE update: 2 days ago

TLE from 2 days ago
0 COSMOS 249 DEB
1  3874U 68091BH  26200.53691598  .00001223  00000-0  11951-2 0  9999
2  3874  62.2539 253.4251 0611512 199.1243 158.5872 13.20952377704947
Epoch: 2026-07-19T12:53Z
TLE epoch observation values (Epoch: 2026-07-19T12:53:09.540Z)
Latitude
0.00003°
Longitude
122.80147°
Altitude
1,616.574 km
Speed
6.857 km/s
True Right ascension
16h 53m 42s
True Declination
0° 00' 00"
Sunlit
Object was in full shadow at epoch
Visualization orbit readout
Latitude
Unknown
Longitude
Unknown
Altitude
Unknown
Speed
Unknown
Apparent Right ascension
Unknown
Apparent Declination
Unknown
Sunlit
N/A
Visualization observer readout
Local Sidereal Time
04:56:42
Azimuth
Unknown
Elevation
Unknown
Doppler factor
Unknown
Orbital elements
Apogee altitude
1,642.258 km
Perigee altitude
717.871 km
Semi-major axis
7,558.201 km
Eccentricity
0.06115
Inclination
62.2539°
RAAN
253.4251°
Arg. of periapsis
199.1243°
True anomaly
160.97445°
Mean anomaly
158.5872°
Eccentric anomaly
159.79718°
Mean motion
3.30305 °/min
Orbital period
108.99 mins
BSTAR
0.0011951
Loading maneuver chart data...
Computing Atmospheric mass density...

Documentation

Showing up to 5 results
|